Regional Weather Roundup
Issued by NWS Upton, NY

Current Version | Previous Version | Text Only | Print | Product List | Glossary On
Versions: 1 2 3 4 5 6 7 8 9 10 11 12 13 14 15 16 17 18 19 20 21 22 23 24 25 26 27
000
ASUS41 KOKX 280308
RWROKX

REGIONAL WEATHER ROUNDUP
NATIONAL WEATHER SERVICE NEW YORK NY
1100 PM EDT MON MAR 27 2017

NOTE: "FAIR" INDICATES FEW OR NO CLOUDS BELOW 12,000 FEET WITH NO
SIGNIFICANT WEATHER AND/OR OBSTRUCTIONS TO VISIBILITY.

NYZ071-072-176-178-NJZ106-104-280400-
NEW YORK CITY METRO AREA

CITY           SKY/WX    TMP DP  RH WIND       PRES   REMARKS
Central Park   CLOUDY    48  45  89 NE5       30.02F
Wall St Helipt CLOUDY    46  45  93 NE9       30.01F
LaGuardia APRT CLOUDY    44  40  85 NE5       30.01S
Kennedy INTL   CLOUDY    47  46  97 E3        30.02S
Breezy Point     N/A     43 N/A N/A E3          N/A
Newark/Liberty CLOUDY    49  46  90 NE5       30.00F
Teterboro      CLOUDY    48  45  89 N5        30.00F
$$

NYZ177-179-078>081-280400-
LONG ISLAND NEW YORK

CITY           SKY/WX    TMP DP  RH WIND       PRES   REMARKS
Jones Beach      N/A     43 N/A N/A E2          N/A
Matinecock PT  NOT AVBL
Farmingdale    MOCLDY    44  42  93 CALM      30.01S FOG
MacArthur/ISP  FOG       42  42 100 NE5       30.01S VSB 1/4
Shirley        FOG       42  42 100 CALM      30.02F VSB 1/4
Westhampton    FOG       42  41  96 N7        30.03F VSB 1/2
East Hampton   CLOUDY    40  39  97 N8        30.01F WCI  35
Montauk          N/A     41  41 100 NW6       30.03S
$$

NYZ052-065-067-280400-
HUDSON VALLEY

CITY           SKY/WX    TMP DP  RH WIND       PRES   REMARKS
White Plains   FOG       42  41  96 N3        29.99F VSB 1/2
Newburgh       CLEAR     41  41 100 CALM      30.01S
Montgomery     FOG       36  35  96 CALM      29.99S VSB 1/2
Poughkeepsie   PTCLDY    35  34  96 CALM      30.01R
Albany         CLOUDY    44  40  85 S3        29.99F
$$

NJZ001-105-106-008-010-013-015-019>022-104-280400-
NEW JERSEY

CITY           SKY/WX    TMP DP  RH WIND       PRES   REMARKS
Newark/Liberty CLOUDY    49  46  90 NE5       30.00F
Teterboro      CLOUDY    48  45  89 N5        30.00F
Caldwell       CLOUDY    48  45  89 CALM      30.01S
Somerville     CLOUDY    46  45  96 CALM      29.98S
Linden         CLOUDY    49  46  87 CALM      30.00S
Sussex         CLOUDY    39  39 100 CALM      30.00S FOG
Andover          N/A     41  40  96 CALM      29.99F
Trenton        CLOUDY    50  49  96 NE3       29.98F FOG
Millville      CLOUDY    55  53  93 CALM      29.96F
Atlantic City  CLOUDY    50  46  86 VRB3      29.97F
Wrightstown    CLOUDY    48  48 100 E5        29.96S FOG
Toms River     CLOUDY    45  44  97 CALM      30.00S FOG
Belmar         FOG       46  46 100 E6        30.00F VSB 1/4
$$

PAZ047>061-062-071-280400-
EASTERN PENNSYLVANIA

CITY           SKY/WX    TMP DP  RH WIND       PRES   REMARKS
Philadelphia   CLOUDY    54  50  86 E6        29.97F FOG
Allentown      CLOUDY    50  46  86 E3        29.98S FOG
Scranton       CLOUDY    50  46  86 E6        29.95F
$$

CTZ002-004>006-009-010-012-RIZ004-006-007-MAZ004-011-015-280400-
SOUTHERN NEW ENGLAND
 IN CT

CITY           SKY/WX    TMP DP  RH WIND       PRES   REMARKS
Bradley INTL   CLOUDY    40  38  93 CALM      30.03F
Hartford       CLOUDY    41  39  93 N5        30.04S FOG
Danbury        CLOUDY    44  43  96 CALM      30.02S FOG
Wtrbury/Oxford CLOUDY    39  36  87 CALM      30.03R VSB<1/4
Bridgeport     CLOUDY    44  41  89 NE7       30.02S FOG
Meriden        CLOUDY    41  39  93 CALM      30.03S FOG
New Haven      CLOUDY    41  39  93 N7        30.02F FOG
Chester        NOT AVBL
Groton         CLOUDY    44  42  93 N8        30.02S FOG
Wilimantic     CLOUDY    43  41  93 N3        30.03F FOG

 IN RI

CITY           SKY/WX    TMP DP  RH WIND       PRES   REMARKS
Providence     CLOUDY    42  39  89 N5        30.02F
Block Island   LGT RAIN  41  41 100 NE5       30.02S VSB 1/4
Westerly       CLOUDY    45  44  97 N5        30.02F
 IN MA

CITY           SKY/WX    TMP DP  RH WIND       PRES   REMARKS
Boston         CLOUDY    38  37  97 N7        30.04S WCI  33
Worcester      FOG       35  34  96 NE5       29.99F VSB 1/4 WCI  31
Westfield      CLOUDY    38  38 100 CALM      30.02F
Provincetown   LGT RAIN  38  38 100 NW14      30.02S FOG     WCI  30
Nantucket      FOG       42  41  96 N9        30.00S VSB 1/4
$$

ANZ330-335-338-340-345-350-353-355-280400-
COASTAL MARINE OBSERVATIONS


STATION/POSITION TIME  SKY/WX   TEMP    WIND        PRES    VSBY  WAVE
                                AIR SEA DIR/SP/G                  HT/PER
                 (UTC)          (F)     (DEG/KT/KT) (MB)    (MI)  (FT/S)
NY HARB ENTRANCE 0150            45 42  110/  4/  4 1016.2          3/ 7
20 S FIRE ISLAND 0150            44 41  120/  4/  4 1015.8          4/ 6
GREAT SOUTH BAY  NOT AVBL
23 SSW MONTAUK P 0150            44 42              1016.7          3/ 6
15 E BARNEGAT LI 0230               44                N/A           3/18
HUDSON CANYON    0150            47 45  210/  4/  4 1016.0          4/ 8
KINGS POINT      0242            39 40              1016.2
EXECUTION ROCKS  NOT AVBL
CENTRAL LI SOUND NOT AVBL
EASTERN LI SOUND NOT AVBL
ROBBINS REEF     0242            48     140/  4/  5 1016.1
$$


>>>>>>>>>>>>>>>>>>>>>>>>>>>> KEY <<<<<<<<<<<<<<<<<<<<<<<<<<<
>                                                          <
>     SKY/WX - Sky Condition/Present Weather               <
>     TMP    - Temperature in Fahrenheit                   <
>     DP     - Dew Point in Fahrenheit                     <
>     RH     - Relative Humidity in Percent                <
>     WIND   - Direction (from) and Speed in MPH           <
>     PRES   - Mean Sea Level Pressure (inches of Hg)      <
>     WCI    - Wind Chill Index                            <
>     VSB    - VISIBILITY IN MILES                         <
>     HX     - HEAT INDEX                                  <
>     TC     - TEMPERATURE IN CELSIUS                      <
>     VRB    - VARIABLE WIND DIRECTION                     <
>                                                          <
>>>>>>>>>>>>>>>>>>>>>>>>>>>> KEY <<<<<<<<<<<<<<<<<<<<<<<<<<<




USA.gov is the U.S. government's official web portal to all federal, state and local government web resources and services.